FW4370 Weather Reports


Display with metric or nautical units.
time (UTC)temp
F
wind
direction
speed
MPH
gust
MPH
rain 1hr
in
rain 24hr
in
rain mn
in
humidity
%
barometer
mb
20240717220017 80 238 5.0 16.0 0.00 0.00 0.00 25 1006.3
20240717214515 81 221 6.0 22.0 0.00 0.00 0.00 22 1006.3
20240717213011 86 240 6.0 11.0 0.00 0.00 0.00 19 1006.1
20240717211509 90 277 5.0 11.0 0.00 0.00 0.00 16 1006.0
20240717210008 92 201 5.0 11.0 0.00 0.00 0.00 16 1005.9
20240717204505 94 160 4.0 11.0 0.00 0.00 0.00 16 1006.0
20240717203001 96 248 6.0 11.0 0.00 0.00 0.00 17 1006.1
20240717201558 95 160 3.0 7.0 0.00 0.00 0.00 18 1006.4
20240717200055 95 195 3.0 8.0 0.00 0.00 0.00 18 1006.5
20240717194604 94 219 4.0 8.0 0.00 0.00 0.00 19 1007.0
20240717193048 94 223 2.0 8.0 0.00 0.00 0.00 20 1007.1
20240717191545 94 203 5.0 10.0 0.00 0.00 0.00 20 1007.3
20240717190041 94 214 2.0 9.0 0.00 0.00 0.00 21 1007.5
20240717184535 92 134 5.0 9.0 0.00 0.00 0.00 21 1007.6
20240717183032 91 28 2.0 9.0 0.00 0.00 0.00 22 1007.7
20240717181532 91 79 1.0 6.0 0.00 0.00 0.00 22 1007.8
20240717180027 91 34 2.0 4.0 0.00 0.00 0.00 23 1007.9
20240717174526 89 138 2.0 6.0 0.00 0.00 0.00 24 1007.9
20240717173037 89 7 4.0 8.0 0.00 0.00 0.00 25 1008.0
20240717171517 88 273 2.0 9.0 0.00 0.00 0.00 26 1008.2
20240717170023 88 238 3.0 6.0 0.00 0.00 0.00 26 1008.2
20240717164511 87 62 1.0 5.0 0.00 0.00 0.00 27 1008.2
20240717163009 87 352 1.0 5.0 0.00 0.00 0.00 28 1008.4
20240717161505 86 234 2.0 6.0 0.00 0.00 0.00 29 1008.4
20240717160002 85 275 0.0 3.0 0.00 0.00 0.00 30 1008.6
20240717154601 83 231 1.0 3.0 0.00 0.00 0.00 31 1008.8
20240717153051 82 93 0.0 5.0 0.00 0.00 0.00 33 1008.9
20240717151550 81 83 2.0 4.0 0.00 0.00 0.00 34 1008.9
20240717150045 81 118 1.0 4.0 0.00 0.00 0.00 36 1008.8
20240717144549 79 87 2.0 6.0 0.00 0.00 0.00 38 1008.9
20240717143037 77 73 1.0 3.0 0.00 0.00 0.00 40 1008.9
20240717141532 74 67 1.0 3.0 0.00 0.00 0.00 41 1009.0
20240717140028 72 117 1.0 4.0 0.00 0.00 0.00 41 1008.9
20240717134540 74 129 0.0 2.0 0.00 0.00 0.00 42 1008.6
20240717133031 72 319 0.0 1.0 0.00 0.00 0.00 44 1008.2
20240717131532 71 319 0.0 2.0 0.00 0.00 0.00 45 1008.1
20240717130014 68 311 0.0 2.0 0.00 0.00 0.00 45 1007.9
20240717124512 66 284 0.0 1.0 0.00 0.00 0.00 46 1007.9
20240717123020 65 284 0.0 2.0 0.00 0.00 0.00 45 1007.9
20240717121506 65 300 0.0 1.0 0.00 0.00 0.00 45 1007.6
20240717120004 67 300 0.0 2.0 0.00 0.00 0.00 45 1007.5
20240717114502 66 324 0.0 3.0 0.00 0.00 0.00 45 1007.5
20240717113059 64 290 0.0 0.0 0.00 0.00 0.00 44 1007.5
20240717111633 65 290 0.0 0.0 0.00 0.00 0.00 44 1007.3
20240717110050 67 290 0.0 0.0 0.00 0.00 0.00 44 1007.1
20240717104549 68 71 1.0 3.0 0.00 0.00 0.00 44 1007.1
20240717103046 68 316 1.0 4.0 0.00 0.00 0.00 44 1007.0
20240717101544 68 316 2.0 5.0 0.00 0.00 0.00 44 1007.0
20240717100042 68 326 1.0 3.0 0.00 0.00 0.00 44 1007.1
20240717094538 68 319 1.0 4.0 0.00 0.00 0.00 43 1007.1
20240717093047 69 309 1.0 3.0 0.00 0.00 0.00 43 1007.3
20240717091532 69 302 0.0 0.0 0.00 0.00 0.00 43 1007.4
20240717090033 67 302 0.0 0.0 0.00 0.00 0.00 42 1007.4
20240717084531 67 302 0.0 0.0 0.00 0.00 0.00 42 1007.3
20240717083025 68 110 0.0 0.0 0.00 0.00 0.00 41 1007.4
20240717081536 67 110 0.0 0.0 0.00 0.00 0.00 39 1007.6
20240717080018 69 110 0.0 1.0 0.00 0.00 0.00 38 1007.7
20240717074512 71 314 0.0 7.0 0.00 0.00 0.00 38 1007.4
20240717073029 72 23 0.0 2.0 0.00 0.00 0.00 39 1007.4
20240717071504 73 340 2.0 5.0 0.00 0.00 0.00 40 1007.6
20240717070102 73 326 1.0 3.0 0.00 0.00 0.00 41 1007.6
20240717064557 72 19 0.0 0.0 0.00 0.00 0.00 42 1007.5
20240717063056 70 109 0.0 0.0 0.00 0.00 0.00 42 1007.8
20240717061601 70 109 0.0 0.0 0.00 0.00 0.00 42 1007.8
20240717060052 69 109 0.0 0.0 0.00 0.00 0.00 40 1007.8
20240717054549 70 109 0.0 0.0 0.00 0.00 0.00 39 1007.8
20240717053051 71 109 0.0 1.0 0.00 0.00 0.00 37 1007.9
20240717051546 73 309 0.0 0.0 0.00 0.00 0.00 36 1007.7
20240717050104 73 309 0.0 1.0 0.00 0.00 0.00 36 1007.8
20240717044543 75 325 0.0 1.0 0.00 0.00 0.00 35 1007.7
20240717043041 75 1 0.0 0.0 0.00 0.00 0.00 35 1007.8
20240717041557 75 359 0.0 1.0 0.00 0.00 0.00 35 1007.6
20240717040042 76 326 0.0 1.0 0.00 0.00 0.00 35 1007.6
20240717034536 76 309 0.0 3.0 0.00 0.00 0.00 35 1007.4
20240717033035 75 251 0.0 1.0 0.00 0.00 0.00 34 1007.3
20240717031534 75 251 0.0 0.0 0.00 0.00 0.00 33 1007.1
20240717030034 77 251 0.0 0.0 0.00 0.00 0.00 33 1007.0
20240717024529 77 250 0.0 0.0 0.00 0.00 0.00 32 1006.9
20240717023028 79 278 0.0 1.0 0.00 0.00 0.00 31 1006.7
20240717021532 81 280 0.0 3.0 0.00 0.00 0.00 30 1006.7
20240717020025 83 256 1.0 4.0 0.00 0.00 0.00 30 1006.5
20240717014529 83 283 3.0 5.0 0.00 0.00 0.00 30 1006.5
20240717013023 84 296 1.0 6.0 0.00 0.00 0.00 31 1006.4
20240717011520 82 261 2.0 5.0 0.00 0.00 0.00 31 1006.1
20240717010023 81 260 1.0 5.0 0.00 0.00 0.00 32 1006.1
20240717004516 81 272 2.0 5.0 0.00 0.00 0.00 32 1006.2
20240717003013 81 269 3.0 7.0 0.00 0.00 0.00 32 1006.3
20240717001508 81 262 2.0 7.0 0.00 0.00 0.00 31 1006.5
20240717000006 81 278 2.0 6.0 0.00 0.03 0.00 31 1006.7
20240716234504 80 281 2.0 7.0 0.00 0.03 0.00 29 1006.8
20240716233104 80 276 3.0 11.0 0.00 0.03 0.00 28 1007.3
20240716231557 79 277 3.0 10.0 0.00 0.03 0.00 26 1007.3
20240716230056 79 285 4.0 11.0 0.00 0.03 0.00 24 1007.5
20240716224602 83 303 6.0 14.0 0.00 0.19 0.00 22 1007.4
20240716223050 88 258 3.0 8.0 0.00 0.19 0.00 21 1007.4
20240716221548 90 235 4.0 9.0 0.00 0.19 0.00 24 1007.7